Wetbulb
70.04 70.56 70.19 70.91 71.43 71.15 70.97 70.55 70.28 69.98 70.09 70.51 71.01 70.68 69.92 68.62 68.30 69.17 70.51 69.12 72.47 72.07 71.78 71.56 71.48 71.86 72.23 72.58 72.09 71.78 71.27 71.19 70.41
70.19 70.65 70.35 70.66 70.44 70.84 70.55 70.23 69.64 69.27 69.49 70.01 70.40 69.51 68.05 66.60 67.08 67.94 68.66 69.29 72.57 72.00 71.87 71.55 71.31 71.23 71.17 71.59 71.85 71.65 70.88 70.50 70.02
69.71 69.96 70.28 70.25 69.99 70.09 69.71 69.57 68.83 68.98 69.25 69.84 69.60 68.62 67.39 66.71 66.53 67.07 67.52 70.56 71.88 72.15 72.03 71.84 71.86 71.63 71.12 70.60 70.66 70.69 70.42 70.00 70.23
67.74 68.88 69.58 69.49 69.40 69.52 68.99 68.57 68.23 68.65 69.27 69.23 68.22 67.29 66.71 66.13 66.81 67.68 67.38 70.22 70.96 71.82 71.50 71.64 71.49 71.28 71.19 71.06 70.67 70.48 70.19 69.70 69.35
64.95 66.05 67.73 68.96 69.16 68.71 67.85 67.61 67.11 67.49 67.90 67.55 66.67 65.83 65.56 64.96 65.65 66.34 67.58 70.22 70.75 71.34 71.44 71.18 71.12 71.17 70.77 70.60 70.87 70.75 70.29 69.99 70.19
59.92 63.50 66.01 68.06 68.18 67.80 67.36 66.76 65.75 64.59 64.60 65.46 65.25 64.47 63.33 63.84 64.49 65.37 68.88 70.37 70.12 69.99 69.89 69.67 70.56 70.83 70.43 70.12 69.98 69.74 69.89 69.72 69.39
59.03 60.72 63.79 65.81 65.60 66.14 66.31 65.11 63.79 62.17 60.85 62.57 63.57 62.27 62.61 62.73 63.34 65.09 68.41 69.73 70.27 70.40 70.14 69.97 70.28 70.13 70.16 69.95 70.03 69.92 69.58 69.02 68.49
53.80 56.98 59.84 60.89 60.74 60.66 61.51 60.47 59.79 58.79 59.48 61.30 61.95 61.97 61.07 61.06 61.71 63.96 67.81 68.70 69.28 69.38 69.52 69.50 69.50 69.54 69.85 69.81 69.74 69.43 68.68 68.09 67.58
52.59 54.04 57.08 59.03 58.73 58.81 59.30 58.73 58.24 57.79 57.74 58.78 59.15 59.97 59.67 59.42 60.10 60.33 64.80 67.77 68.69 68.60 68.96 68.53 68.33 67.88 67.06 68.05 68.04 68.18 68.08 67.25 66.82
51.27 51.95 54.47 57.11 58.33 58.13 59.07 58.41 56.57 55.95 56.31 56.42 56.15 55.18 56.70 58.11 58.62 58.94 61.17 64.44 66.45 67.93 68.46 67.97 67.85 66.90 66.51 67.68 67.74 67.19 66.81 66.45 66.40
50.48 51.29 54.43 56.39 58.81 60.99 60.09 58.26 57.12 56.18 55.77 54.92 55.29 54.92 53.98 54.94 55.68 57.20 56.61 60.56 62.59 65.29 67.05 67.85 68.17 67.74 67.06 66.72 66.50 66.07 65.93 66.17 66.02
47.12 48.27 49.57 52.57 55.93 59.70 58.93 57.45 56.65 55.82 54.89 52.95 53.36 53.59 53.02 53.08 54.17 54.53 55.68 55.46 58.21 60.95 63.76 65.17 66.86 67.77 67.06 66.70 66.49 65.70 65.54 65.62 65.94
41.67 42.15 42.39 47.77 53.24 56.55 57.04 55.94 55.10 54.26 53.25 52.23 50.14 50.47 52.36 53.07 52.89 52.11 53.22 53.88 54.62 56.20 59.97 60.97 62.74 64.56 66.76 67.35 67.19 66.91 65.91 65.61 65.58
38.23 38.44 39.45 43.55 46.65 48.26 52.41 56.13 55.20 52.19 52.13 51.53 50.88 48.94 48.82 50.38 51.79 51.90 52.27 51.34 52.74 53.02 55.90 57.34 57.90 60.12 62.93 65.15 66.91 67.13 67.18 66.76 66.08
34.96 36.20 36.78 39.61 40.43 41.75 43.02 50.11 54.56 53.24 51.81 51.33 51.07 49.92 47.89 47.75 47.99 48.29 50.14 50.22 51.89 51.94 53.53 52.60 52.83 56.87 59.22 61.21 63.32 65.56 66.74 66.73 66.75
32.64 33.82 34.50 35.99 36.81 37.47 39.95 41.58 50.15 52.25 51.95 50.86 50.60 49.58 46.89 45.91 45.91 46.53 47.03 47.75 48.94 49.46 51.89 52.37 52.46 51.17 55.63 57.14 59.38 61.67 64.34 66.41 66.32
32.51 32.12 32.41 33.51 34.30 34.68 36.76 38.14 41.90 48.09 51.47 49.27 48.17 42.61 43.92 44.75 44.89 44.80 45.98 45.82 46.75 47.81 48.67 48.60 48.98 49.22 49.86 51.75 56.46 57.79 60.46 63.62 66.07
29.12 30.62 31.76 32.12 32.62 32.18 34.16 37.15 38.86 38.74 45.81 43.35 48.43 45.94 41.00 42.96 44.24 43.69 44.24 44.91 45.06 45.75 46.41 47.43 48.13 48.52 48.66 50.64 51.83 54.83 56.80 59.75 63.23
25.66 27.22 28.85 29.74 31.65 30.99 33.11 36.18 37.85 38.49 38.15 41.19 42.74 44.34 48.66 45.12 44.06 44.18 45.44 44.60 44.46 44.64 45.10 45.72 46.51 47.17 47.21 49.24 51.06 53.25 54.88 57.75 60.42
22.48 23.88 25.08 25.89 27.81 28.84 30.63 33.49 35.35 36.24 37.06 37.44 38.79 40.32 42.70 45.34 44.38 44.12 44.92 46.02 45.26 44.41 44.47 44.71 44.95 45.79 46.09 46.41 48.31 51.92 54.15 56.74 58.81
MSLP
1019.80 1019.98 1019.89 1019.99 1020.03 1019.87 1019.87 1019.97 1019.91 1019.73 1019.48 1019.37 1019.40 1019.64 1019.76 1019.83 1019.87 1019.68 1019.67 1019.71 1019.70 1019.87 1019.98 1020.10 1020.18 1020.29 1020.37 1020.42 1020.56 1020.70 1020.73 1020.85 1021.04
1019.79 1019.96 1020.29 1020.30 1020.26 1020.14 1020.26 1020.31 1020.39 1020.04 1019.82 1019.81 1019.99 1020.11 1020.29 1020.26 1020.32 1020.12 1020.00 1020.01 1019.90 1020.10 1020.29 1020.42 1020.57 1020.64 1020.74 1020.86 1020.92 1021.09 1021.09 1021.31 1021.41
1020.26 1020.35 1020.41 1020.56 1020.54 1020.11 1020.55 1020.64 1020.59 1020.44 1020.20 1020.23 1020.41 1020.52 1020.62 1020.68 1020.72 1020.60 1020.50 1020.34 1020.29 1020.27 1020.52 1020.71 1020.86 1020.99 1021.12 1021.28 1021.34 1021.42 1021.63 1021.70 1021.78
1021.05 1021.06 1020.95 1020.87 1020.89 1021.01 1021.16 1021.12 1020.96 1020.88 1020.69 1020.74 1020.97 1021.04 1021.02 1021.13 1021.08 1020.94 1020.94 1020.62 1020.65 1020.59 1020.66 1020.90 1021.10 1021.26 1021.48 1021.62 1021.70 1021.77 1022.00 1022.13 1022.19
1021.65 1021.53 1021.49 1021.39 1021.39 1021.53 1021.55 1021.49 1021.44 1021.43 1021.32 1021.43 1021.45 1021.58 1021.54 1021.64 1021.43 1021.41 1021.14 1021.03 1021.01 1020.96 1021.02 1021.27 1021.47 1021.49 1021.75 1021.91 1022.01 1022.13 1022.23 1022.32 1022.52
1022.05 1022.05 1021.92 1021.77 1021.79 1021.87 1021.99 1021.95 1021.94 1021.91 1021.91 1021.97 1021.97 1022.10 1022.17 1022.11 1022.04 1021.76 1021.60 1021.44 1021.42 1021.38 1021.43 1021.59 1021.73 1021.88 1022.05 1022.18 1022.28 1022.38 1022.48 1022.61 1022.78
1022.53 1022.46 1022.35 1022.27 1022.24 1022.34 1022.27 1022.34 1022.45 1022.41 1022.41 1022.41 1022.43 1022.70 1022.64 1022.59 1022.49 1022.19 1021.89 1021.81 1021.77 1021.72 1021.84 1021.96 1022.10 1022.12 1022.24 1022.42 1022.45 1022.52 1022.78 1022.94 1023.05
1023.12 1022.92 1022.74 1022.70 1022.65 1022.76 1022.74 1022.92 1022.99 1023.02 1022.88 1022.85 1022.81 1022.98 1023.05 1023.13 1023.11 1022.85 1022.35 1022.19 1022.19 1022.20 1022.16 1022.31 1022.38 1022.43 1022.51 1022.60 1022.76 1022.91 1023.06 1023.20 1023.25
1023.66 1023.55 1023.35 1023.17 1023.15 1023.16 1023.26 1023.38 1023.44 1023.60 1023.55 1023.42 1023.45 1023.52 1023.57 1023.72 1023.72 1023.61 1022.86 1022.64 1022.54 1022.50 1022.54 1022.61 1022.67 1022.71 1022.77 1022.89 1023.08 1023.12 1023.30 1023.44 1023.52
1024.41 1024.28 1023.98 1023.66 1023.58 1023.76 1023.69 1023.72 1023.99 1024.05 1024.08 1024.07 1024.04 1024.11 1024.13 1024.22 1024.18 1023.85 1023.62 1023.32 1023.17 1022.95 1022.88 1022.90 1022.85 1022.89 1023.03 1023.10 1023.23 1023.38 1023.52 1023.64 1023.72
1025.26 1024.83 1024.33 1024.12 1023.99 1023.60 1023.86 1024.01 1024.25 1024.37 1024.35 1024.36 1024.26 1024.36 1024.42 1024.45 1024.28 1024.24 1024.09 1023.88 1023.82 1023.56 1023.34 1023.25 1023.08 1022.96 1023.11 1023.23 1023.43 1023.50 1023.56 1023.69 1023.81
1026.23 1025.87 1025.48 1025.05 1024.65 1024.25 1024.23 1024.26 1024.44 1024.50 1024.44 1024.83 1024.83 1024.75 1024.74 1024.81 1024.66 1024.53 1024.39 1024.34 1024.25 1024.11 1023.94 1023.72 1023.47 1023.24 1023.14 1023.15 1023.39 1023.56 1023.61 1023.67 1023.76
1027.37 1027.17 1026.98 1026.28 1025.36 1024.84 1024.70 1024.71 1024.74 1025.00 1025.21 1025.19 1025.46 1025.35 1025.10 1025.00 1024.83 1024.83 1024.72 1024.64 1024.65 1024.52 1024.45 1024.27 1024.04 1023.75 1023.53 1023.33 1023.26 1023.32 1023.54 1023.59 1023.76
1028.40 1028.31 1028.09 1027.28 1026.60 1026.26 1025.77 1025.13 1025.07 1025.35 1025.43 1025.52 1025.51 1025.52 1025.51 1025.28 1025.06 1025.00 1025.00 1025.05 1024.92 1024.99 1024.75 1024.63 1024.54 1024.23 1023.98 1023.76 1023.52 1023.39 1023.25 1023.30 1023.51
1029.65 1029.46 1029.20 1028.65 1028.21 1027.66 1027.27 1026.34 1025.56 1025.78 1025.92 1025.80 1025.53 1025.33 1025.32 1025.39 1025.38 1025.39 1025.25 1025.23 1025.30 1025.00 1024.96 1024.79 1024.72 1024.49 1024.33 1024.23 1024.03 1023.69 1023.37 1023.19 1023.23
1030.97 1030.75 1030.46 1030.04 1029.69 1029.61 1028.82 1027.72 1026.79 1026.43 1026.43 1026.14 1025.67 1025.43 1025.50 1025.70 1025.71 1025.63 1025.59 1025.49 1025.38 1025.25 1025.06 1024.81 1024.82 1024.79 1024.57 1024.40 1024.22 1023.96 1023.69 1023.29 1023.00
1031.85 1031.80 1031.65 1031.36 1030.95 1030.58 1029.91 1029.31 1028.51 1027.87 1027.45 1027.29 1026.79 1026.56 1026.12 1025.86 1025.80 1025.81 1025.75 1025.70 1025.51 1025.24 1025.09 1025.04 1024.97 1024.90 1024.80 1024.68 1024.43 1024.26 1023.95 1023.59 1023.12
1033.13 1032.80 1032.43 1032.16 1031.95 1031.76 1031.34 1030.72 1030.06 1029.51 1028.43 1028.22 1027.86 1027.22 1027.21 1026.79 1026.00 1025.88 1025.78 1025.68 1025.53 1025.33 1025.18 1025.02 1024.95 1024.89 1024.80 1024.59 1024.43 1024.23 1024.05 1023.71 1023.29
1034.37 1033.98 1033.52 1033.17 1032.80 1032.57 1032.22 1031.67 1031.15 1030.53 1030.09 1028.93 1028.69 1028.49 1027.80 1027.35 1026.68 1026.14 1025.85 1025.74 1025.71 1025.56 1025.39 1025.29 1025.11 1024.90 1024.71 1024.50 1024.36 1024.15 1023.95 1023.65 1023.30
1035.47 1035.06 1034.62 1034.23 1033.90 1033.61 1033.12 1032.38 1031.90 1031.62 1031.22 1030.83 1030.06 1028.94 1028.34 1028.20 1028.12 1026.91 1026.56 1026.13 1025.84 1025.54 1025.48 1025.40 1025.23 1024.87 1024.67 1024.44 1024.08 1023.84 1023.70 1023.48 1023.22
Wind_Speed
14 12 11 13 12 15 14 14 14 14 15 14 13 12 11 8 5 5 6 5 12 14 14 14 14 14 14 15 15 15 15 15 14
11 13 9 11 12 14 14 14 13 13 14 12 12 12 10 6 5 5 5 4 12 14 13 13 13 14 14 13 14 14 14 13 13
13 13 12 11 13 17 14 14 13 13 12 10 12 11 9 6 5 5 4 5 10 12 13 13 13 13 13 13 13 13 13 12 13
12 12 12 12 13 13 13 13 13 13 11 14 13 12 11 6 4 5 3 4 6 8 10 11 12 12 11 11 12 12 12 11 11
12 11 11 10 12 13 12 13 14 14 14 13 14 12 11 6 5 4 4 7 6 6 7 8 10 11 11 9 11 10 10 9 10
8 8 10 8 12 13 12 12 12 12 13 14 12 10 4 5 4 3 8 10 8 8 6 6 8 10 9 8 8 8 9 9 9
6 6 10 12 11 12 13 12 11 8 4 4 8 4 5 5 4 4 9 9 9 9 7 7 7 7 8 6 6 9 10 9 8
4 3 4 4 6 4 6 5 4 6 4 5 5 6 5 4 4 7 13 11 9 7 6 6 6 6 7 9 8 8 9 7 7
5 3 4 4 3 4 4 3 5 6 6 7 7 6 5 4 3 5 13 15 13 8 7 4 4 5 3 4 5 5 7 5 5
4 4 4 2 3 2 3 4 4 5 5 4 5 6 6 5 3 3 13 14 14 14 13 7 4 0 0 3 4 4 3 3 3
7 6 6 6 5 2 4 4 4 3 3 5 6 6 5 5 6 4 5 13 14 14 13 12 12 5 4 2 3 3 4 3 3
10 8 8 8 6 5 4 5 4 4 3 6 5 5 5 5 5 4 4 5 10 12 14 14 14 15 3 3 4 3 3 3 4
10 9 9 9 8 6 4 3 3 4 3 3 4 4 4 5 5 5 4 4 4 7 12 13 14 14 15 10 6 7 6 5 5
11 10 10 11 9 8 8 4 3 3 4 3 1 2 2 3 3 4 5 5 5 4 7 11 12 14 15 15 15 13 10 10 10
11 10 12 10 9 10 10 8 5 3 3 4 4 3 2 3 4 5 4 5 4 5 5 4 5 11 13 14 15 17 16 10 11
13 9 11 11 10 10 11 6 6 4 6 3 4 3 2 2 3 3 3 4 4 5 4 3 3 4 11 13 15 16 18 18 11
13 12 10 11 8 11 12 12 5 4 6 3 2 3 5 4 3 2 2 3 3 4 5 5 5 4 4 6 13 14 16 18 17
15 14 11 11 9 9 9 11 11 5 4 9 4 3 2 3 2 3 2 3 3 4 4 5 5 5 4 6 8 12 14 17 18
15 14 13 12 9 11 9 9 8 7 7 5 8 6 3 3 4 3 4 5 5 5 4 5 5 5 4 6 9 13 14 16 18
15 14 13 12 9 10 11 10 10 7 6 6 5 5 6 7 4 5 5 3 3 4 4 4 5 6 5 5 7 13 15 17 19
Wind_Direction
79 58 64 68 64 69 60 57 53 50 46 47 62 67 65 67 51 60 75 84 110 105 107 102 97 90 84 84 90 91 88 81 84
51 75 62 67 62 69 63 59 50 49 44 52 77 73 61 53 51 53 63 89 112 114 109 104 100 97 91 86 86 88 93 91 86
42 34 31 59 66 60 55 56 48 41 45 70 77 68 61 57 49 44 47 110 124 124 119 114 105 98 96 93 90 88 84 83 80
41 35 31 56 62 64 61 58 52 41 61 74 69 58 53 52 39 41 31 95 120 116 115 117 109 104 98 100 100 97 96 92 89
32 29 22 47 65 66 59 57 54 58 60 63 64 53 44 37 35 21 27 43 67 85 95 111 116 105 99 85 84 95 99 99 88
32 26 24 39 62 65 65 65 58 59 53 52 57 49 38 38 25 15 39 48 52 67 73 107 103 108 106 109 105 95 95 87 84
32 25 32 51 58 60 63 59 54 50 49 43 54 47 43 35 14 14 40 53 48 57 63 74 94 107 115 110 128 108 93 92 91
28 26 18 29 43 48 55 49 42 39 42 45 49 49 43 35 19 9 38 49 50 60 67 78 89 90 94 89 86 109 103 102 102
14 23 22 23 17 54 66 54 47 42 43 44 37 49 44 29 20 347 39 43 35 43 55 56 76 67 79 70 94 84 95 108 111
4 7 11 22 29 55 61 78 64 51 47 56 74 49 43 24 5 13 23 41 38 34 35 20 328 86 175 117 106 113 128 127 119
11 6 21 17 359 60 91 70 59 57 38 40 43 38 27 23 20 9 10 24 27 32 30 20 11 284 195 180 175 170 167 167 163
15 17 10 6 351 12 41 67 49 33 24 39 24 20 19 11 8 3 17 12 12 17 19 14 16 11 283 222 196 223 217 210 207
23 21 13 353 4 10 12 19 53 44 31 21 10 14 359 354 3 4 1 5 4 4 7 9 7 10 4 357 301 220 217 236 241
24 22 11 4 12 14 357 14 35 22 7 354 290 349 325 333 346 350 356 351 352 345 351 8 1 5 3 358 353 344 267 217 223
22 22 18 14 19 18 2 350 17 23 358 324 302 283 291 331 338 330 336 343 332 1 349 1 346 356 357 353 350 348 341 268 233
27 24 19 16 25 13 6 339 356 13 359 320 342 338 10 340 330 312 308 321 335 337 338 355 357 340 346 345 341 343 340 332 267
28 26 23 21 19 18 16 15 343 341 23 343 307 336 333 352 349 3 341 322 318 321 321 326 328 332 329 321 329 333 331 330 316
24 24 23 22 25 20 10 13 18 348 331 345 350 334 356 309 331 344 2 1 339 323 316 304 295 297 307 315 315 314 320 318 318
22 21 22 22 20 20 13 15 16 6 9 325 7 346 313 337 314 342 330 338 319 315 312 314 312 301 295 297 294 298 303 305 308
21 20 18 20 17 13 12 12 23 17 19 11 337 343 332 38 322 320 347 325 306 289 283 298 302 301 296 293 283 287 292 293 293